STARLINK-5462 (55674 NORAD) Tracking and Keplerian Element Data

This shows tracking and keplerian element data for the satellite.

Feedback or suggestion? Click here.




ElementValue
Catalog55674
NameSTARLINK-5462
Epoch Orbit130
Epoch Day62.91667824
Epoch Year2023
RAAN110.18
Inclination69.9996
Eccentricity0.000357
Argument of Perigee279.5993
Mean Anonmoly332.3333
Mean Motion15.75342402
Decay Rate-0.01043347
L11 55674U 23021AY 23062.91667824 -.01043347 00000+0 -76409-2 0 9992
L22 55674 69.9996 110.1800 0003570 279.5993 332.3333 15.75342402 1304



Live tracking and technical data element details for STARLINK-5462 (NORAD 55674). STARLINK-5462 can be tracked NOW for your location showing map with azimuth and elevation plus other details from your city location.







IsCatalogInMostPopularTable: catalog: 55674, numindb: 2
Update: records affected: 1



GetName: 55674 STARLINK-5462

Hit Count: updated at: Wed, 22 Mar 2023 15:45:39 GMT